When you browse on this site, cookies collect data to enhance your experience and personalize the content and advertising you see.
Visit our Privacy Policy to learn more. By continuing to use the site, you agree to this use of cookies and data.
  • Em Portugal
  • Lista de países
  • Para 7 dias
  • Temperatura da água
  • Mapa do tempo
  • Widgets de tempo
  • user-avatar
    Iniciar Sessão

    Previsão horária em Shalashino

    Hoje, 22 Outubro, Terça-feira

    Tempo Temperatura Precipitação Vento Pressão Humidade
    00:00 +12°C° 0 mm 2 m/s 750 mmHg 94%
    01:00 +12°C° 0 mm 2 m/s 750 mmHg 94%
    02:00 +11°C° 0 mm 1 m/s 750 mmHg 93%
    03:00 +11°C° 0 mm 1 m/s 750 mmHg 93%
    04:00 +11°C° 0 mm 1 m/s 751 mmHg 93%
    05:00 +11°C° 0 mm 1 m/s 751 mmHg 93%
    06:00 +11°C° 0 mm 1 m/s 751 mmHg 93%
    07:00 +11°C° 0 mm 1 m/s 751 mmHg 93%
    08:00 +11°C° 0 mm 1 m/s 751 mmHg 93%
    09:00 +12°C° 0 mm 2 m/s 751 mmHg 91%
    10:00 +13°C° 0 mm 2 m/s 751 mmHg 89%
    11:00 +14°C° 0 mm 3 m/s 751 mmHg 87%
    12:00 +14°C° 0 mm 3 m/s 751 mmHg 85%
    13:00 +16°C° 0 mm 3 m/s 751 mmHg 83%
    14:00 +17°C° 0 mm 3 m/s 750 mmHg 81%
    15:00 +15°C° 0 mm 4 m/s 750 mmHg 84%
    16:00 +14°C° 0 mm 4 m/s 749 mmHg 87%
    17:00 +14°C° 0 mm 4 m/s 749 mmHg 89%
    18:00 +14°C° 0 mm 4 m/s 749 mmHg 89%
    19:00 +14°C° 0 mm 4 m/s 749 mmHg 88%
    20:00 +14°C° 0 mm 4 m/s 749 mmHg 88%
    21:00 +13°C° 0 mm 4 m/s 749 mmHg 90%
    22:00 +13°C° 0 mm 3 m/s 749 mmHg 91%
    23:00 +12°C° 0 mm 3 m/s 748 mmHg 93%

    Amanhã, 23 Outubro, Quarta-feira

    Tempo Temperatura Precipitação Vento Pressão Humidade
    00:00 +12°C° 0 mm 3 m/s 748 mmHg 93%
    01:00 +12°C° 0 mm 3 m/s 748 mmHg 94%
    02:00 +12°C° 0 mm 3 m/s 748 mmHg 95%
    03:00 +11°C° 0 mm 3 m/s 748 mmHg 95%
    04:00 +11°C° 0 mm 3 m/s 748 mmHg 95%
    05:00 +11°C° 0 mm 3 m/s 748 mmHg 95%
    06:00 +11°C° 0 mm 3 m/s 748 mmHg 95%
    07:00 +12°C° 0 mm 2 m/s 748 mmHg 95%
    08:00 +12°C° 0 mm 2 m/s 748 mmHg 94%
    09:00 +13°C° 0 mm 2 m/s 748 mmHg 88%
    10:00 +13°C° 0 mm 3 m/s 748 mmHg 81%
    11:00 +16°C° 0 mm 3 m/s 748 mmHg 74%
    12:00 +16°C° 0 mm 3 m/s 748 mmHg 71%
    13:00 +16°C° 0 mm 3 m/s 748 mmHg 69%
    14:00 +16°C° 0 mm 3 m/s 748 mmHg 67%
    15:00 +14°C° 0 mm 3 m/s 748 mmHg 71%
    16:00 +14°C° 0 mm 2 m/s 748 mmHg 76%
    17:00 +13°C° 0 mm 2 m/s 748 mmHg 80%
    18:00 +12°C° 0.2 mm 2 m/s 748 mmHg 84%
    19:00 +12°C° 0.2 mm 2 m/s 748 mmHg 88%
    20:00 +10°C° 0.2 mm 2 m/s 748 mmHg 92%
    21:00 +10°C° 0 mm 2 m/s 749 mmHg 89%
    22:00 +10°C° 0 mm 2 m/s 749 mmHg 86%
    23:00 +10°C° 0 mm 2 m/s 749 mmHg 83%

    Depois de amanhã, 24 Outubro, Quinta-feira

    Tempo Temperatura Precipitação Vento Pressão Humidade
    00:00 +9°C° 0 mm 2 m/s 749 mmHg 84%
    01:00 +9°C° 0 mm 1 m/s 749 mmHg 86%
    02:00 +9°C° 0 mm 1 m/s 749 mmHg 87%
    03:00 +8°C° 0 mm 1 m/s 749 mmHg 88%
    04:00 +8°C° 0 mm 1 m/s 749 mmHg 89%
    05:00 +8°C° 0 mm 1 m/s 749 mmHg 90%
    06:00 +8°C° 0 mm 1 m/s 749 mmHg 89%
    07:00 +8°C° 0 mm 1 m/s 750 mmHg 89%
    08:00 +8°C° 0 mm 1 m/s 750 mmHg 89%
    09:00 +9°C° 0 mm 1 m/s 750 mmHg 84%
    10:00 +10°C° 0 mm 1 m/s 750 mmHg 79%
    11:00 +12°C° 0 mm 2 m/s 750 mmHg 74%
    12:00 +12°C° 0 mm 2 m/s 750 mmHg 71%
    13:00 +13°C° 0 mm 2 m/s 750 mmHg 69%
    14:00 +13°C° 0 mm 2 m/s 750 mmHg 66%
    15:00 +12°C° 0 mm 1 m/s 750 mmHg 71%
    16:00 +11°C° 0 mm 1 m/s 750 mmHg 76%
    17:00 +9°C° 0 mm 1 m/s 750 mmHg 81%
    18:00 +8°C° 0 mm 0 m/s 750 mmHg 82%
    19:00 +8°C° 0 mm 0 m/s 750 mmHg 84%
    20:00 +7°C° 0 mm 0 m/s 750 mmHg 85%
    21:00 +7°C° 0 mm 0 m/s 750 mmHg 86%
    22:00 +8°C° 0 mm 1 m/s 750 mmHg 87%
    23:00 +8°C° 0 mm 1 m/s 750 mmHg 87%

    25 Outubro, Sexta-feira

    Tempo Temperatura Precipitação Vento Pressão Humidade
    00:00 +8°C° 0 mm 1 m/s 750 mmHg 88%
    01:00 +7°C° 0 mm 1 m/s 750 mmHg 89%
    02:00 +7°C° 0 mm 1 m/s 750 mmHg 90%
    03:00 +6°C° 0 mm 2 m/s 750 mmHg 90%
    04:00 +6°C° 0 mm 2 m/s 750 mmHg 91%
    05:00 +6°C° 0 mm 2 m/s 749 mmHg 91%
    06:00 +6°C° 0 mm 2 m/s 749 mmHg 90%
    07:00 +6°C° 0 mm 2 m/s 749 mmHg 89%
    08:00 +5°C° 0 mm 3 m/s 749 mmHg 88%
    09:00 +8°C° 0 mm 3 m/s 749 mmHg 83%
    10:00 +8°C° 0 mm 4 m/s 749 mmHg 79%
    11:00 +11°C° 0 mm 4 m/s 749 mmHg 74%
    12:00 +11°C° 0 mm 4 m/s 749 mmHg 72%
    13:00 +12°C° 0 mm 5 m/s 748 mmHg 70%
    14:00 +13°C° 0 mm 5 m/s 748 mmHg 69%
    15:00 +12°C° 0 mm 5 m/s 748 mmHg 73%
    16:00 +10°C° 0 mm 5 m/s 747 mmHg 77%
    17:00 +10°C° 0 mm 4 m/s 747 mmHg 81%
    18:00 +10°C° 0 mm 4 m/s 747 mmHg 83%
    19:00 +10°C° 0 mm 4 m/s 747 mmHg 85%
    20:00 +10°C° 0 mm 4 m/s 747 mmHg 86%
    21:00 +8°C° 0 mm 4 m/s 747 mmHg 89%
    22:00 +8°C° 0 mm 4 m/s 747 mmHg 91%
    23:00 +9°C° 0 mm 3 m/s 746 mmHg 93%

    26 Outubro, Sábado

    Tempo Temperatura Precipitação Vento Pressão Humidade
    00:00 +9°C° 0 mm 3 m/s 746 mmHg 94%
    01:00 +9°C° 0 mm 3 m/s 747 mmHg 95%
    02:00 +8°C° 0 mm 2 m/s 747 mmHg 96%
    03:00 +8°C° 0 mm 2 m/s 747 mmHg 96%
    04:00 +8°C° 0 mm 2 m/s 747 mmHg 96%
    05:00 +8°C° 0 mm 2 m/s 747 mmHg 96%
    06:00 +9°C° 0 mm 2 m/s 747 mmHg 96%
    07:00 +9°C° 0 mm 2 m/s 747 mmHg 96%
    08:00 +9°C° 0 mm 2 m/s 746 mmHg 96%
    09:00 +10°C° 0 mm 2 m/s 746 mmHg 91%
    10:00 +11°C° 0 mm 3 m/s 746 mmHg 87%
    11:00 +12°C° 0 mm 4 m/s 746 mmHg 83%
    12:00 +13°C° 0 mm 4 m/s 745 mmHg 81%
    13:00 +14°C° 0 mm 5 m/s 745 mmHg 79%
    14:00 +14°C° 0 mm 5 m/s 744 mmHg 77%
    15:00 +14°C° 0 mm 5 m/s 744 mmHg 79%
    16:00 +13°C° 0 mm 5 m/s 743 mmHg 82%
    17:00 +12°C° 0 mm 5 m/s 743 mmHg 85%
    18:00 +12°C° 0 mm 5 m/s 743 mmHg 85%
    19:00 +12°C° 0 mm 5 m/s 742 mmHg 86%
    20:00 +12°C° 0 mm 5 m/s 742 mmHg 86%
    21:00 +12°C° 0 mm 5 m/s 742 mmHg 88%
    22:00 +12°C° 0 mm 5 m/s 741 mmHg 89%
    23:00 +12°C° 0 mm 5 m/s 741 mmHg 90%

    27 Outubro, Domingo

    Tempo Temperatura Precipitação Vento Pressão Humidade
    00:00 +12°C° 0.1 mm 5 m/s 741 mmHg 90%
    01:00 +12°C° 0.1 mm 5 m/s 741 mmHg 90%
    02:00 +12°C° 0.1 mm 5 m/s 741 mmHg 90%
    03:00 +12°C° 0.2 mm 5 m/s 741 mmHg 90%
    04:00 +10°C° 0.2 mm 5 m/s 741 mmHg 90%
    05:00 +11°C° 0.2 mm 4 m/s 741 mmHg 89%
    06:00 +10°C° 0.3 mm 4 m/s 741 mmHg 88%
    07:00 +10°C° 0.3 mm 3 m/s 741 mmHg 87%
    08:00 +10°C° 0.3 mm 2 m/s 741 mmHg 86%
    09:00 +9°C° 0.3 mm 3 m/s 741 mmHg 83%
    10:00 +9°C° 0.3 mm 3 m/s 741 mmHg 79%
    11:00 +8°C° 0.3 mm 4 m/s 741 mmHg 75%
    12:00 +8°C° 0.1 mm 4 m/s 741 mmHg 71%
    13:00 +8°C° 0.1 mm 5 m/s 741 mmHg 67%
    14:00 +8°C° 0.1 mm 5 m/s 740 mmHg 63%
    15:00 +7°C° 0 mm 5 m/s 740 mmHg 67%
    16:00 +7°C° 0 mm 4 m/s 740 mmHg 70%
    17:00 +7°C° 0 mm 3 m/s 740 mmHg 74%
    18:00 +5°C° 0 mm 4 m/s 741 mmHg 76%
    19:00 +5°C° 0 mm 4 m/s 741 mmHg 78%
    20:00 +4°C° 0 mm 4 m/s 741 mmHg 79%
    21:00 +4°C° 0 mm 4 m/s 741 mmHg 79%
    22:00 +4°C° 0 mm 4 m/s 741 mmHg 80%
    23:00 +3°C° 0 mm 4 m/s 742 mmHg 80%

    28 Outubro, Segunda-feira

    Tempo Temperatura Precipitação Vento Pressão Humidade
    00:00 +2°C° 0 mm 5 m/s 741 mmHg 79%
    01:00 +2°C° 0 mm 5 m/s 741 mmHg 78%
    02:00 +2°C° 0 mm 6 m/s 741 mmHg 78%
    03:00 +2°C° 0 mm 6 m/s 741 mmHg 78%
    04:00 +2°C° 0 mm 6 m/s 741 mmHg 79%
    05:00 +2°C° 0 mm 6 m/s 740 mmHg 80%
    06:00 +2°C° 0 mm 6 m/s 740 mmHg 81%
    07:00 +2°C° 0 mm 6 m/s 740 mmHg 82%
    08:00 +2°C° 0 mm 6 m/s 740 mmHg 82%
    09:00 +3°C° 0 mm 7 m/s 740 mmHg 79%
    10:00 +3°C° 0 mm 7 m/s 740 mmHg 75%
    11:00 +4°C° 0 mm 7 m/s 741 mmHg 72%
    12:00 +4°C° 0.1 mm 7 m/s 740 mmHg 75%
    13:00 +4°C° 0.1 mm 6 m/s 740 mmHg 79%
    14:00 +3°C° 0.1 mm 6 m/s 740 mmHg 83%
    15:00 +3°C° 0.1 mm 6 m/s 740 mmHg 82%
    16:00 +3°C° 0.1 mm 5 m/s 740 mmHg 81%
    17:00 +3°C° 0.1 mm 5 m/s 740 mmHg 81%
    18:00 +3°C° 0 mm 5 m/s 740 mmHg 80%
    19:00 +2°C° 0 mm 5 m/s 740 mmHg 79%
    20:00 +2°C° 0 mm 5 m/s 739 mmHg 78%
    21:00 +2°C° 0 mm 5 m/s 739 mmHg 79%
    22:00 +1°C° 0 mm 5 m/s 739 mmHg 80%
    23:00 +1°C° 0 mm 5 m/s 739 mmHg 80%
    Mostrar mais